FW6321 Weather Reports


time (UTC)temp
C
wind
direction
speed
KPH
gust
KPH
rain 1hr
cm
rain 24hr
cm
rain mn
cm
humidity
%
barometer
mb
20260504120311 18 75 4.8 11.3 0.00 0.48 0.00 86 1014.1
20260504110318 17 354 1.6 6.4 0.00 0.61 0.00 89 1014.4
20260504100215 15 69 3.2 4.8 0.00 0.79 0.00 98 1014.6
20260504080702 14 118 0.0 3.2 0.00 1.09 0.00 99 1014.3
20260504080236 13 118 1.6 4.8 0.00 1.09 0.00 99 1014.3
20260504070156 13 178 1.6 8.0 0.00 1.09 0.00 99 1013.7
20260504060223 12 172 1.6 3.2 0.00 1.09 0.00 99 1013.5
20260504050634 12 127 1.6 4.8 0.00 1.09 0.00 99 1012.6
20260504050209 12 127 1.6 6.4 0.00 1.09 0.00 99 1012.6
20260504045131 12 139 1.6 3.2 0.00 1.09 0.00 99 1012.5
20260504044632 12 139 1.6 3.2 0.00 1.09 0.00 98 1012.6
20260504044135 12 139 0.0 3.2 0.00 1.09 0.00 98 1012.6
20260504043635 12 139 0.0 3.2 0.00 1.09 0.00 98 1012.5
20260504043136 12 139 0.0 3.2 0.00 1.09 0.00 98 1012.6
20260504042640 12 139 0.0 3.2 0.00 1.09 0.00 98 1012.6
20260504042131 12 139 0.0 1.6 0.00 1.09 0.00 98 1012.7
20260504041633 12 139 0.0 3.2 0.00 1.09 0.00 98 1012.7
20260504041131 12 139 1.6 3.2 0.00 1.09 0.00 98 1012.7
20260504040701 12 139 1.6 6.4 0.00 1.09 0.00 98 1012.8
20260504035657 12 139 1.6 3.2 0.00 1.09 0.00 98 1012.7
20260504034637 12 139 0.0 3.2 0.00 1.09 0.00 98 1012.7
20260504034209 12 139 1.6 3.2 0.00 1.09 0.00 98 1012.8
20260504033135 12 139 1.6 3.2 0.00 1.09 0.00 98 1012.8
20260504032632 12 139 0.0 3.2 0.00 1.09 0.00 98 1012.8
20260504032134 12 139 0.0 1.6 0.00 1.09 0.00 98 1012.9
20260504031656 12 139 0.0 1.6 0.00 1.09 0.00 98 1012.9
20260504030632 11 139 0.0 3.2 0.00 1.09 0.00 98 1013.0
20260504030132 11 139 0.0 3.2 0.00 1.09 0.00 98 1012.9
20260504025630 11 139 0.0 1.6 0.00 1.09 0.00 98 1012.9
20260504025130 11 139 0.0 1.6 0.00 1.09 0.00 98 1012.9
20260504024630 11 139 0.0 1.6 0.00 1.09 0.00 98 1012.9
20260504024130 11 139 0.0 3.2 0.00 1.09 0.00 98 1012.9
20260504023632 11 139 1.6 3.2 0.00 1.09 0.00 98 1012.7
20260504023129 11 139 1.6 3.2 0.00 1.09 0.00 98 1012.7
20260504022632 11 139 1.6 3.2 0.00 1.09 0.00 98 1012.6
20260504022131 11 139 0.0 3.2 0.00 1.09 0.00 98 1012.6
20260504021631 11 139 0.0 1.6 0.00 1.09 0.00 98 1012.6
20260504021141 11 139 1.6 3.2 0.00 1.09 0.00 98 1012.6
20260504020631 11 139 1.6 3.2 0.00 1.09 0.00 98 1012.6
20260504020129 11 139 1.6 3.2 0.00 1.09 0.00 97 1012.6
20260504015628 11 152 1.6 3.2 0.00 1.09 0.00 97 1012.5
20260504015204 11 152 1.6 3.2 0.00 1.09 0.00 97 1012.5
20260504014206 11 152 0.0 3.2 0.00 1.09 0.00 97 1012.6
20260504013136 11 152 0.0 3.2 0.00 1.09 0.00 98 1012.7
20260504012640 11 152 0.0 0.0 0.00 1.09 0.00 98 1012.6
20260504012130 11 152 0.0 1.6 0.00 1.09 0.00 97 1012.6
20260504011629 11 152 0.0 1.6 0.00 1.09 0.00 97 1012.6
20260504011130 11 152 0.0 1.6 0.00 1.09 0.00 97 1012.5
20260504010801 11 152 0.0 1.6 0.00 1.09 0.00 97 1012.4
20260504004628 11 184 1.6 1.6 0.00 1.09 0.00 97 1012.5
20260504004126 11 184 0.0 1.6 0.00 1.09 0.00 97 1012.4
20260504003642 12 185 0.0 1.6 0.00 1.09 0.00 97 1012.3
20260504002701 12 184 1.6 3.2 0.00 1.09 0.00 97 1012.2
20260504001615 12 184 0.0 3.2 0.00 1.09 0.00 97 1012.3
20260504001110 12 184 1.6 3.2 0.00 1.09 0.00 97 1012.4
20260504000611 12 184 1.6 3.2 0.00 1.09 0.00 97 1012.4
20260504000141 12 181 1.6 3.2 0.00 1.09 0.00 97 1012.5
20260503235146 12 181 0.0 3.2 0.00 1.09 0.00 97 1012.4
20260503234829 12 181 1.6 4.8 0.00 1.09 0.00 97 1012.5
20260503231604 13 181 4.8 9.7 0.00 1.09 0.00 97 1012.6
20260503231104 13 179 6.4 11.3 0.00 1.09 0.00 97 1012.8
20260503230613 13 148 6.4 11.3 0.00 1.09 0.00 97 1012.7
20260503230135 13 172 6.4 9.7 0.00 1.09 0.00 97 1012.7
20260503225100 12 186 3.2 9.7 0.00 1.09 0.00 97 1012.8
20260503224600 12 172 3.2 9.7 0.00 1.09 0.00 97 1012.7
20260503224120 12 166 1.6 6.4 0.00 1.09 0.00 97 1012.7
20260503223126 12 207 0.0 3.2 0.00 1.09 0.00 96 1012.6
20260503222126 12 207 0.0 3.2 0.00 1.09 0.00 96 1012.7
20260503221055 12 207 3.2 6.4 0.00 1.09 0.00 97 1012.8
20260503220553 12 202 3.2 4.8 0.00 1.09 0.00 96 1012.7
20260503220051 12 205 1.6 4.8 0.00 1.09 0.00 96 1012.6
20260503215550 12 183 1.6 4.8 0.00 1.09 1.09 96 1012.6
20260503215049 13 193 1.6 3.2 0.00 1.09 1.09 96 1012.6
20260503214621 13 187 1.6 3.2 0.00 1.09 1.09 96 1012.5
20260503213551 13 187 3.2 4.8 0.00 1.09 1.09 96 1012.5
20260503213046 13 177 3.2 8.0 0.00 1.12 1.09 96 1012.6
20260503212547 13 192 3.2 8.0 0.00 1.17 1.09 96 1012.5
20260503212049 13 181 3.2 8.0 0.00 1.24 1.09 96 1012.5
20260503211548 13 167 3.2 8.0 0.00 1.27 1.09 96 1012.6
20260503211047 13 184 3.2 8.0 0.00 1.30 1.09 96 1012.6
20260503210543 13 177 1.6 6.4 0.00 1.35 1.09 96 1012.5
20260503210046 13 183 3.2 6.4 0.00 1.42 1.09 96 1012.5
20260503205544 13 210 3.2 6.4 0.00 1.55 1.09 96 1012.5
20260503205042 13 206 4.8 8.0 0.00 1.70 1.09 96 1012.4
20260503204542 13 176 4.8 8.0 0.00 2.13 1.09 96 1012.3
20260503204043 13 166 4.8 8.0 0.00 2.74 1.09 96 1012.4
20260503203656 13 174 4.8 9.7 0.00 2.77 1.09 96 1012.4
20260503202044 13 163 4.8 11.3 0.00 2.77 1.09 96 1012.6
20260503201542 13 156 4.8 11.3 0.00 2.77 1.09 96 1012.6
20260503201041 13 166 6.4 12.9 0.00 2.77 1.09 96 1012.5
20260503200543 13 154 4.8 12.9 0.00 2.77 1.09 96 1012.4
20260503200042 13 169 4.8 8.0 0.00 2.77 1.09 96 1012.4
20260503195542 13 171 4.8 8.0 0.00 2.77 1.09 96 1012.5
20260503195044 13 172 4.8 8.0 0.00 2.77 1.09 96 1012.3
20260503194542 13 180 4.8 9.7 0.00 2.77 1.09 96 1012.4
20260503194043 13 168 4.8 9.7 0.03 2.77 1.09 96 1012.2
20260503193542 13 155 6.4 11.3 0.03 2.77 1.09 96 1012.1
20260503193043 13 162 6.4 12.9 0.05 2.77 1.09 96 1012.1
20260503192546 13 204 8.0 12.9 0.05 2.77 1.09 96 1012.0
20260503192042 13 171 8.0 14.5 0.05 2.77 1.09 96 1011.9
20260503191614 14 182 6.4 14.5 0.05 2.77 1.09 95 1011.8
20260503190545 14 178 8.0 14.5 0.05 2.77 1.09 95 1011.7
20260503190047 14 163 8.0 14.5 0.05 2.77 1.09 95 1011.7
20260503185542 14 169 6.4 12.9 0.05 2.77 1.09 95 1011.7
20260503185041 14 166 3.2 11.3 0.05 2.77 1.09 95 1011.7
20260503184542 15 162 3.2 8.0 0.05 2.77 1.09 95 1011.4
20260503184041 15 170 4.8 14.5 0.05 2.77 1.09 95 1011.4
20260503183542 15 150 6.4 14.5 0.05 2.77 1.09 95 1011.5
20260503183127 15 171 6.4 12.9 0.05 2.74 1.07 95 1011.5
20260503182038 15 187 6.4 12.9 0.05 2.74 1.07 95 1011.5
20260503181537 15 183 4.8 12.9 0.05 2.74 1.07 95 1011.5
20260503181038 15 173 4.8 11.3 0.05 2.74 1.07 95 1011.4
20260503180538 15 170 4.8 11.3 0.05 2.74 1.07 95 1011.5
20260503180041 15 150 4.8 9.7 0.03 2.72 1.04 95 1011.4
20260503175537 16 185 4.8 9.7 0.03 2.72 1.04 95 1011.5
20260503175038 16 180 4.8 9.7 0.03 2.72 1.04 95 1011.4
20260503174537 16 163 4.8 9.7 0.05 2.72 1.04 95 1011.4
20260503174036 16 145 4.8 9.7 0.08 2.72 1.04 95 1011.4
20260503173534 16 175 4.8 9.7 0.05 2.69 1.02 95 1011.5
20260503173035 16 172 3.2 9.7 0.08 2.69 1.02 95 1011.3
20260503172534 16 173 3.2 9.7 0.10 2.69 1.02 94 1011.2
20260503172030 16 207 3.2 6.4 0.10 2.69 1.02 94 1011.1
20260503171533 16 195 3.2 9.7 0.10 2.69 1.02 94 1011.0
20260503171032 16 207 3.2 9.7 0.10 2.69 1.02 94 1010.9
20260503170545 16 193 3.2 9.7 0.10 2.69 1.02 94 1011.0
20260503150514 16 179 1.6 6.4 0.23 2.59 0.91 97 1011.0
20260503131006 15 170 4.8 11.3 0.05 2.36 0.69 96 1011.7
20260503130504 15 174 4.8 11.3 0.05 2.36 0.69 96 1011.6